This demonstration page uses our WeatherBlox Daily Observations layout. Learn more.

Left ArrowRight Arrow

34.74481, -87.66753

Hourly Observations for May 13, 2020

Temp ( °F °C ) Dew Point ( °F °C ) Humidity (%) Winds ( mph kmh ) Pressure ( in mb ) Visibility ( mi km ) Precip ( " mm )
12:53 am 00:53 Mostly Cloudy 57 13.9 49 9.4 74 74 ESE 7 11 30.15 1021 10 16 0.00 0.00
1:53 am 01:53 Cloudy 58 14.4 49 9.4 72 72 E 5 7 30.13 1020 10 16 0.00 0.00
2:53 am 02:53 Cloudy 59 15 49 9.4 69 69 ENE 3 6 30.14 1021 10 16 0.00 0.00
3:53 am 03:53 Cloudy with Light Rain 57 13.9 51 10.6 81 81 E 6 9 30.15 1021 10 16 0.02 0.51
4:53 am 04:53 Cloudy with Light Rain 56 13.3 52 11.1 87 87 ENE 8 13 30.14 1021 10 16 0.05 1.27
5:53 am 05:53 Cloudy with Light Rain 57 13.9 53 11.7 87 87 NE 3 6 30.16 1022 10 16 0.00 0.00
6:53 am 06:53 Cloudy 57 13.9 53 11.7 87 87 E 8 13 30.18 1022 10 16 0.00 0.00
7:53 am 07:53 Mostly Cloudy 58 14.4 53 11.7 84 84 ESE 7 11 30.19 1022 10 16 0.00 0.00
8:53 am 08:53 Cloudy 59 15 54 12.2 83 83 E 5 7 30.19 1023 10 16 0.00 0.00
9:53 am 09:53 Partly Cloudy 65 18.3 55 12.8 70 70 SE 7 11 30.18 1022 10 16 0.00 0.00
10:53 am 10:53 Mostly Sunny 70 21.1 57 13.9 64 64 ESE 7 11 30.17 1022 10 16 0.00 0.00
11:53 am 11:53 Sunny 76 24.4 57 13.9 52 52 SSE 8 13 30.16 1021 10 16 0.00 0.00
12:53 pm 12:53 Sunny 80 26.7 53 11.7 39 39 S 13 20 30.13 1020 10 16 0.00 0.00
1:53 pm 13:53 Sunny 80 26.7 52 11.1 38 38 S 15 24 30.12 1020 10 16 0.00 0.00
2:53 pm 14:53 Sunny 80 26.7 52 11.1 38 38 S 14 22 30.11 1020 10 16 0.00 0.00
3:53 pm 15:53 Sunny 78 25.6 53 11.7 42 42 S 13 20 30.11 1020 10 16 0.00 0.00
4:53 pm 16:53 Sunny 76 24.4 53 11.7 45 45 SSW 12 19 30.11 1020 10 16 0.00 0.00
5:53 pm 17:53 Sunny 76 24.4 54 12.2 47 47 S 6 9 30.12 1020 10 16 0.00 0.00
6:53 pm 18:53 Mostly Cloudy 75 23.9 56 13.3 52 52 VRB 5 7 30.12 1020 10 16 0.00 0.00
7:53 pm 19:53 Mostly Clear 71 21.7 60 15.6 68 68 VRB 3 6 30.13 1020 10 16 0.00 0.00
8:53 pm 20:53 Partly Cloudy 70 21.1 57 13.9 64 64 SE 7 11 30.13 1020 10 16 0.00 0.00
9:53 pm 21:53 Clear 71 21.7 54 12.2 55 55 SE 8 13 30.12 1020 10 16 0.00 0.00
10:53 pm 22:53 Clear 68 20 54 12.2 61 61 ESE 7 11 30.12 1020 10 16 0.00 0.00
11:53 pm 23:53 Clear 65 18.3 54 12.2 68 68 ESE 5 7 30.10 1019 10 16 0.00 0.00

Powered by AerisWeather